Regional Weather Roundup
Issued by NWS

Home | Current Version | Previous Version | Graphics & Text | Print | Product List | Glossary On
Versions: 1 2 3 4 5 6 7 8 9 10 11 12 13 14 15 16 17 18 19 20 21 22 23 24 25 26 27 28 29 30 31 32 33 34 35 36 37 38 39 40 41 42 43 44 45 46 47 48 49 50
000
ASUS43 KIND 222309
RWRIN

WEATHER ROUNDUP FOR INDIANA
NATIONAL WEATHER SERVICE INDIANAPOLIS IN
600 PM EST SAT NOV 22 2014

NOTE: "FAIR" INDICATES FEW OR NO CLOUDS BELOW 12,000 FEET WITH NO
SIGNIFICANT WEATHER AND/OR OBSTRUCTIONS TO VISIBILITY.

* - STATION DOES NOT REPORT WEATHER SUCH AS PRECIPITATION OR FOG.

+ - STATION NOT QUALITY CONTROLLED BY THE NATIONAL WEATHER SERVICE.
    USE DATA WITH CAUTION...ESPECIALLY DEWPOINT AND RELATIVE
    HUMIDITY OBSERVATIONS.

INZ001>003-010>013-019-020-230000-
NORTHWEST INDIANA

CITY           SKY/WX    TMP DP  RH WIND       PRES   REMARKS
GARY /AIRPORT/ CLOUDY    54  46  76 S12G23    29.90R
KNOX *+        CLOUDY    50  45  84 SW14      29.92S
LA PORTE +     CLOUDY    51  48  92 SW12      29.92S
MICHIGAN CITY+ CLOUDY    50  46  87 S12       29.92R
MONTICELLO +   CLOUDY    52  45  77 S10G16    29.95R
RENSSELAER +   CLOUDY    50  46  87 S12       29.94S
VALPARAISO     CLOUDY    50  45  83 SW13      29.92S

$$

LMZ046-743>745-230000-
SOUTHERN LAKE MICHIGAN

STATION/POSITION TIME  TEMP WIND        PRES
                       AIR  DIR/SP/G
                 (UTC) (F)  (DEG/KT/KT) (MB)
MICHIGAN CITY    2300   51  170/ 16/ 20   N/A

$$

INZ004-005-014>016-021>024-230000-
NORTH CENTRAL INDIANA

CITY           SKY/WX    TMP DP  RH WIND       PRES   REMARKS
ELKHART        LGT RAIN  46  45  93 S5        29.94S
GOSHEN         CLOUDY    49  44  83 S13       29.93F
LOGANSPORT +   CLOUDY    46  43  87 S8        29.97S
PERU/GRISSOM   MOCLDY    51  48  92 S15       29.96F
ROCHESTER +    CLOUDY    52  45  76 S13G20    29.95F
SOUTH BEND     LGT RAIN  46  44  93 S10       29.93S
WARSAW +       CLOUDY    50  43  76 SW9G16    29.94F

$$

INZ006>009-017-018-025>027-230000-
NORTHEAST INDIANA

CITY           SKY/WX    TMP DP  RH WIND       PRES   REMARKS
ANGOLA *+      CLOUDY    48  39  71 SW13      29.94F
AUBURN +       CLOUDY    50  41  71 S9        29.97S
FORT WAYNE     CLOUDY    50  42  74 S15       29.99S
HUNTINGTON +   CLOUDY    50  43  77 S9G16     29.98S

$$

INZ028-029-035-036-043>045-051>053-230000-
WEST CENTRAL INDIANA

CITY           SKY/WX    TMP DP  RH WIND       PRES   REMARKS
GREENCASTLE +  CLOUDY    55  41  58 S8        30.01F
LAFAYETTE      CLOUDY    53  44  71 S9        29.96F
TERRE HAUTE    CLOUDY    55  42  61 S12       30.01S

$$

INZ030>032-037>040-046>048-054>057-064-065-230000-
CENTRAL INDIANA

CITY           SKY/WX    TMP DP  RH WIND       PRES   REMARKS
CP ATTERBURY + CLOUDY    55  39  54 S7        30.05F
FRANKFORT +    CLOUDY    51  44  77 S9        30.00F
INDIANAPOLIS   CLOUDY    54  40  59 S14       30.01F
-EAGLE CREEK   CLOUDY    56  40  55 S8        30.00F
KOKOMO *+      CLOUDY    52  43  71 S16       29.98F
MARION +       CLOUDY    49  41  72 S12       30.00F
MT COMFORT *+  CLOUDY    52  34  50 S10       30.02F
SHELBYVILLE    CLOUDY    54  41  61 S9        30.04S
ZIONSVILLE +   CLOUDY    55  40  57 S12       30.00F

$$

INZ033-034-041-042-049-050-058-059-230000-
EAST CENTRAL INDIANA

CITY           SKY/WX    TMP DP  RH WIND       PRES   REMARKS
MUNCIE         CLOUDY    53  41  63 SW12      30.02S

$$

INZ060-061-067>069-081>083-085>088-230000-
SOUTHWEST INDIANA

CITY           SKY/WX    TMP DP  RH WIND       PRES   REMARKS
EVANSVILLE     CLOUDY    61  38  42 S10       30.04F
HUNTINGBURG *+ MOCLDY    55  37  50 S5        30.06F
WASHINGTON +   CLOUDY    54  45  70 S5        30.03S

$$

INZ062-063-066-070>080-084-089>092-230000-
SOUTH CENTRAL AND SOUTHEAST INDIANA

CITY           SKY/WX    TMP DP  RH WIND       PRES   REMARKS
BLOOMINGTON    CLOUDY    56  40  55 S10       30.03F

$$



USA.gov is the U.S. government's official web portal to all federal, state and local government web resources and services.